When you browse on this site, cookies collect data to enhance your experience and personalize the content and advertising you see.
Visit our Privacy Policy to learn more. By continuing to use the site, you agree to this use of cookies and data.
  • In Lithuania
  • List of Countries
  • For 7 days
  • Water Temperature
  • Weather Map
  • Weather Widgets
  • user-avatar
    Login

    Hourly Weather Linz

    Today, 22 September, Sunday

    Time Temperature Precipitation Wind Pressure Humidity
    00:00 +9°C° 0 mm 2 mps 735 mmHg 75%
    01:00 +9°C° 0 mm 2 mps 734 mmHg 77%
    02:00 +8°C° 0 mm 2 mps 734 mmHg 79%
    03:00 +9°C° 0 mm 1 mps 734 mmHg 80%
    04:00 +8°C° 0 mm 1 mps 734 mmHg 82%
    05:00 +9°C° 0 mm 1 mps 734 mmHg 81%
    06:00 +9°C° 0 mm 1 mps 734 mmHg 79%
    07:00 +10°C° 0 mm 1 mps 734 mmHg 78%
    08:00 +12°C° 0 mm 1 mps 733 mmHg 72%
    09:00 +14°C° 0 mm 1 mps 733 mmHg 65%
    10:00 +16°C° 0 mm 2 mps 733 mmHg 58%
    11:00 +17°C° 0 mm 2 mps 732 mmHg 57%
    12:00 +19°C° 0 mm 2 mps 732 mmHg 55%
    13:00 +21°C° 0 mm 1 mps 732 mmHg 53%
    14:00 +21°C° 0 mm 1 mps 731 mmHg 56%
    15:00 +21°C° 0 mm 1 mps 731 mmHg 59%
    16:00 +20°C° 0 mm 1 mps 731 mmHg 61%
    17:00 +19°C° 0 mm 1 mps 730 mmHg 68%
    18:00 +16°C° 0 mm 1 mps 730 mmHg 75%
    19:00 +13°C° 0 mm 0 mps 730 mmHg 82%
    20:00 +12°C° 0 mm 0 mps 731 mmHg 82%
    21:00 +12°C° 0 mm 0 mps 731 mmHg 82%
    22:00 +12°C° 0 mm 0 mps 731 mmHg 82%
    23:00 +12°C° 0 mm 0 mps 731 mmHg 82%

    Tomorrow, 23 September, Monday

    Time Temperature Precipitation Wind Pressure Humidity
    00:00 +11°C° 0 mm 0 mps 730 mmHg 83%
    01:00 +11°C° 0 mm 0 mps 730 mmHg 83%
    02:00 +11°C° 0 mm 0 mps 730 mmHg 84%
    03:00 +10°C° 0 mm 0 mps 730 mmHg 85%
    04:00 +10°C° 0 mm 0 mps 730 mmHg 85%
    05:00 +11°C° 0 mm 0 mps 730 mmHg 84%
    06:00 +12°C° 0 mm 1 mps 731 mmHg 83%
    07:00 +13°C° 0 mm 1 mps 731 mmHg 82%
    08:00 +14°C° 0 mm 2 mps 731 mmHg 81%
    09:00 +16°C° 0 mm 3 mps 731 mmHg 79%
    10:00 +17°C° 0 mm 3 mps 731 mmHg 77%
    11:00 +17°C° 0.3 mm 4 mps 731 mmHg 81%
    12:00 +15°C° 0.3 mm 5 mps 731 mmHg 85%
    13:00 +14°C° 0.3 mm 5 mps 731 mmHg 89%
    14:00 +14°C° 0.4 mm 5 mps 731 mmHg 90%
    15:00 +13°C° 0.4 mm 5 mps 732 mmHg 91%
    16:00 +13°C° 0.4 mm 5 mps 732 mmHg 92%
    17:00 +13°C° 0.4 mm 5 mps 732 mmHg 93%
    18:00 +12°C° 0.4 mm 4 mps 733 mmHg 93%
    19:00 +12°C° 0.4 mm 4 mps 733 mmHg 94%
    20:00 +12°C° 0.5 mm 4 mps 733 mmHg 94%
    21:00 +12°C° 0.5 mm 4 mps 733 mmHg 94%
    22:00 +12°C° 0.5 mm 3 mps 734 mmHg 94%
    23:00 +12°C° 0.2 mm 3 mps 734 mmHg 94%

    Day after tomorrow, 24 September, Tuesday

    Time Temperature Precipitation Wind Pressure Humidity
    00:00 +12°C° 0.2 mm 3 mps 733 mmHg 94%
    01:00 +13°C° 0.2 mm 2 mps 733 mmHg 94%
    02:00 +13°C° 0.1 mm 2 mps 733 mmHg 94%
    03:00 +13°C° 0.1 mm 2 mps 733 mmHg 94%
    04:00 +13°C° 0.1 mm 1 mps 733 mmHg 94%
    05:00 +13°C° 0 mm 1 mps 732 mmHg 94%
    06:00 +13°C° 0 mm 1 mps 732 mmHg 93%
    07:00 +13°C° 0 mm 1 mps 732 mmHg 93%
    08:00 +14°C° 0 mm 1 mps 732 mmHg 89%
    09:00 +15°C° 0 mm 1 mps 732 mmHg 85%
    10:00 +16°C° 0 mm 1 mps 731 mmHg 81%
    11:00 +18°C° 0 mm 1 mps 731 mmHg 75%
    12:00 +20°C° 0 mm 1 mps 731 mmHg 70%
    13:00 +21°C° 0 mm 1 mps 730 mmHg 64%
    14:00 +21°C° 0 mm 1 mps 730 mmHg 64%
    15:00 +21°C° 0 mm 1 mps 730 mmHg 65%
    16:00 +20°C° 0 mm 1 mps 729 mmHg 65%
    17:00 +19°C° 0 mm 1 mps 729 mmHg 71%
    18:00 +15°C° 0 mm 0 mps 729 mmHg 78%
    19:00 +13°C° 0 mm 0 mps 729 mmHg 85%
    20:00 +14°C° 0 mm 1 mps 730 mmHg 85%
    21:00 +14°C° 0 mm 1 mps 730 mmHg 85%
    22:00 +14°C° 0 mm 1 mps 730 mmHg 86%
    23:00 +14°C° 0 mm 1 mps 730 mmHg 85%

    25 September, Wednesday

    Time Temperature Precipitation Wind Pressure Humidity
    00:00 +14°C° 0 mm 1 mps 730 mmHg 85%
    01:00 +15°C° 0 mm 2 mps 729 mmHg 84%
    02:00 +14°C° 0.1 mm 1 mps 729 mmHg 86%
    03:00 +14°C° 0.1 mm 1 mps 729 mmHg 87%
    04:00 +12°C° 0.1 mm 0 mps 729 mmHg 89%
    05:00 +14°C° 0 mm 1 mps 729 mmHg 88%
    06:00 +14°C° 0 mm 1 mps 729 mmHg 88%
    07:00 +14°C° 0 mm 1 mps 729 mmHg 87%
    08:00 +14°C° 0.4 mm 2 mps 729 mmHg 89%
    09:00 +14°C° 0.4 mm 2 mps 729 mmHg 90%
    10:00 +13°C° 0.4 mm 3 mps 730 mmHg 91%
    11:00 +13°C° 0.8 mm 3 mps 730 mmHg 90%
    12:00 +13°C° 0.8 mm 3 mps 730 mmHg 90%
    13:00 +13°C° 0.8 mm 3 mps 730 mmHg 90%
    14:00 +13°C° 0.4 mm 3 mps 730 mmHg 89%
    15:00 +13°C° 0.4 mm 3 mps 730 mmHg 88%
    16:00 +13°C° 0.4 mm 3 mps 730 mmHg 87%
    17:00 +13°C° 0.1 mm 2 mps 731 mmHg 88%
    18:00 +13°C° 0.1 mm 2 mps 731 mmHg 90%
    19:00 +12°C° 0.1 mm 1 mps 731 mmHg 91%
    20:00 +12°C° 0 mm 1 mps 731 mmHg 90%
    21:00 +12°C° 0 mm 1 mps 732 mmHg 89%
    22:00 +12°C° 0 mm 1 mps 732 mmHg 88%
    23:00 +12°C° 0 mm 2 mps 732 mmHg 89%

    26 September, Thursday

    Time Temperature Precipitation Wind Pressure Humidity
    00:00 +12°C° 0 mm 2 mps 732 mmHg 89%
    01:00 +10°C° 0 mm 2 mps 732 mmHg 89%
    02:00 +10°C° 0 mm 2 mps 732 mmHg 90%
    03:00 +11°C° 0 mm 1 mps 732 mmHg 91%
    04:00 +10°C° 0 mm 1 mps 733 mmHg 92%
    05:00 +11°C° 0 mm 1 mps 733 mmHg 91%
    06:00 +11°C° 0 mm 1 mps 733 mmHg 90%
    07:00 +11°C° 0 mm 1 mps 733 mmHg 89%
    08:00 +13°C° 0 mm 1 mps 733 mmHg 83%
    09:00 +13°C° 0 mm 0 mps 733 mmHg 78%
    10:00 +15°C° 0 mm 0 mps 733 mmHg 72%
    11:00 +18°C° 0 mm 1 mps 733 mmHg 66%
    12:00 +19°C° 0 mm 1 mps 733 mmHg 60%
    13:00 +20°C° 0 mm 2 mps 732 mmHg 54%
    14:00 +20°C° 0 mm 2 mps 732 mmHg 56%
    15:00 +21°C° 0 mm 1 mps 732 mmHg 57%
    16:00 +21°C° 0 mm 1 mps 732 mmHg 58%
    17:00 +19°C° 0 mm 1 mps 732 mmHg 64%
    18:00 +16°C° 0 mm 1 mps 732 mmHg 70%
    19:00 +13°C° 0 mm 0 mps 732 mmHg 76%
    20:00 +13°C° 0 mm 0 mps 733 mmHg 78%
    21:00 +12°C° 0 mm 0 mps 733 mmHg 79%
    22:00 +13°C° 0 mm 1 mps 733 mmHg 80%
    23:00 +12°C° 0 mm 0 mps 733 mmHg 81%

    27 September, Friday

    Time Temperature Precipitation Wind Pressure Humidity
    00:00 +12°C° 0 mm 0 mps 733 mmHg 81%
    01:00 +11°C° 0 mm 0 mps 733 mmHg 81%
    02:00 +12°C° 0 mm 1 mps 733 mmHg 81%
    03:00 +12°C° 0 mm 1 mps 733 mmHg 81%
    04:00 +12°C° 0 mm 1 mps 733 mmHg 81%
    05:00 +13°C° 0 mm 1 mps 732 mmHg 79%
    06:00 +13°C° 0 mm 1 mps 732 mmHg 78%
    07:00 +14°C° 0 mm 1 mps 732 mmHg 76%
    08:00 +15°C° 0 mm 1 mps 732 mmHg 72%
    09:00 +18°C° 0 mm 1 mps 732 mmHg 67%
    10:00 +20°C° 0 mm 1 mps 732 mmHg 63%
    11:00 +21°C° 0 mm 1 mps 731 mmHg 61%
    12:00 +21°C° 0 mm 2 mps 731 mmHg 59%
    13:00 +23°C° 0 mm 2 mps 730 mmHg 57%
    14:00 +23°C° 0 mm 1 mps 730 mmHg 60%
    15:00 +23°C° 0 mm 1 mps 730 mmHg 63%
    16:00 +23°C° 0 mm 1 mps 730 mmHg 67%
    17:00 +21°C° 0 mm 1 mps 729 mmHg 70%
    18:00 +20°C° 0 mm 1 mps 729 mmHg 73%
    19:00 +18°C° 0 mm 1 mps 729 mmHg 77%
    20:00 +18°C° 0 mm 1 mps 729 mmHg 78%
    21:00 +16°C° 0 mm 1 mps 728 mmHg 79%
    22:00 +15°C° 0 mm 1 mps 728 mmHg 80%
    23:00 +15°C° 0 mm 1 mps 728 mmHg 81%
    Show more